Theta_e
320 319 317 317 315 312 311 311 337 342 346 340 331 341 354 353 352 351 349 344 344 346 350 349 347 344 345 347 345 349 351 352
318 317 316 314 312 312 308 315 348 335 333 337 327 332 336 334 334 337 341 342 342 348 349 346 344 343 342 341 340 344 346 347
316 317 316 314 316 310 308 307 323 331 328 330 329 324 327 327 326 329 334 337 338 341 346 344 341 340 343 334 329 328 328 325
318 317 316 317 317 311 313 316 315 319 321 324 328 326 325 324 325 325 331 332 330 331 333 335 335 333 331 327 326 325 325 324
318 317 318 319 319 312 308 308 314 319 323 323 322 324 322 321 319 322 325 329 328 328 329 331 329 329 328 328 328 328 328 326
317 319 319 323 321 317 313 314 315 319 326 325 323 321 320 320 322 322 326 326 324 323 324 325 328 328 329 329 329 329 328 328
319 321 322 322 321 320 320 316 318 321 324 323 323 322 322 323 322 321 321 320 319 318 320 320 320 321 323 324 324 326 328 330
322 321 322 321 319 319 318 318 319 322 324 320 320 319 322 322 321 321 320 321 320 319 319 319 320 320 321 322 322 322 323 325
322 319 320 320 319 324 323 321 323 325 322 320 321 321 322 321 320 320 319 319 320 320 319 319 318 320 321 322 323 323 323 325
319 319 325 318 322 324 325 324 322 322 323 322 322 319 320 317 316 317 316 314 313 314 314 314 314 319 319 320 319 322 325 327
318 318 317 321 322 322 323 326 324 325 324 323 321 320 320 313 312 312 309 308 309 309 308 310 311 314 313 312 313 314 315 318
313 317 317 317 321 319 319 325 324 324 323 322 319 314 313 310 308 307 307 307 307 307 308 308 309 311 311 310 310 310 310 311
316 315 315 317 319 318 321 318 322 321 320 319 318 314 311 307 307 307 307 307 307 307 307 307 308 309 309 308 308 309 309 310
314 317 320 319 320 319 315 319 320 319 318 316 313 310 308 307 306 306 306 307 307 307 307 307 307 307 307 308 309 309 309 309
313 314 314 320 317 320 317 318 318 316 314 311 308 307 307 306 305 305 306 306 307 307 308 309 308 307 308 308 309 310 310 310
316 319 323 323 321 319 318 318 315 313 310 307 307 306 306 305 305 305 307 307 307 307 308 308 309 309 308 309 309 310 311 311
317 318 319 318 320 319 317 315 313 310 307 306 305 305 305 304 305 306 306 307 307 308 309 310 310 309 309 309 310 310 311 312
317 315 317 316 317 318 316 314 311 309 308 307 306 304 305 304 306 305 306 308 307 308 311 311 309 310 310 310 310 311 312 312
317 315 315 319 318 318 316 313 312 308 307 307 307 306 305 304 306 306 307 309 310 310 311 312 310 310 311 311 310 311 312 312
Wind_Speed
1 2 5 3 2 4 6 3 5 3 2 3 11 7 10 10 12 10 5 3 5 10 11 12 12 12 8 4 3 4 13 18
5 5 4 4 5 2 4 3 4 3 3 2 7 6 10 9 6 3 1 5 6 11 15 17 16 15 14 9 6 3 2 4
4 5 3 5 4 7 6 4 5 4 2 6 6 7 10 11 9 7 8 9 7 12 20 13 9 8 7 6 6 7 8 11
2 4 4 4 3 4 5 1 2 5 2 5 6 10 13 12 12 9 10 8 8 14 11 10 8 5 3 4 8 12 14 15
7 7 7 7 4 4 4 3 1 5 3 5 5 8 8 10 8 8 8 9 9 16 15 13 13 13 13 14 12 10 11 14
6 5 3 3 5 3 4 4 4 1 9 4 4 6 7 8 8 7 8 7 6 8 11 11 11 13 13 15 16 15 15 16
2 2 2 1 4 3 1 4 5 7 7 4 4 6 6 6 7 8 7 7 7 7 15 22 24 26 25 25 23 21 20 21
4 6 7 4 9 10 7 6 9 13 6 4 3 6 7 7 6 6 6 8 9 13 17 19 21 24 27 32 34 31 34 34
2 4 4 4 6 3 6 7 10 8 5 3 3 5 4 5 6 5 6 8 10 14 19 23 27 29 30 34 34 32 32 34
1 4 2 4 7 13 15 9 10 9 5 3 1 2 6 5 5 7 7 9 11 14 19 23 29 27 28 33 34 31 28 26
4 2 1 4 4 2 4 2 2 6 5 2 3 5 5 4 4 4 6 11 13 14 18 18 23 26 24 29 33 33 31 28
2 3 5 6 2 6 6 1 6 6 6 5 2 2 3 1 4 8 14 17 18 21 19 21 19 20 21 23 25 28 30 31
3 2 4 5 3 4 4 6 7 6 5 5 4 4 3 7 7 10 11 15 17 19 21 24 26 25 23 21 23 27 28 34
3 3 5 4 3 5 5 3 7 6 6 6 5 4 3 7 8 13 14 13 15 18 24 27 27 25 27 26 27 26 28 28
6 5 3 2 4 0 5 6 6 6 5 6 6 6 6 6 9 14 16 18 19 20 26 33 32 28 28 29 29 30 31 30
3 2 3 2 1 4 3 4 6 6 7 7 6 7 7 7 10 15 19 22 23 25 26 28 26 28 29 29 31 31 31 34
1 3 2 5 6 6 5 6 5 6 7 8 7 7 8 6 13 19 21 23 22 22 22 27 28 28 30 30 31 32 36 33
5 8 6 5 11 9 9 10 9 9 7 11 13 8 11 12 19 21 24 27 20 20 17 23 23 24 27 33 32 36 33 33
3 3 4 2 6 11 10 10 12 12 12 7 17 18 16 15 22 24 26 26 19 21 19 20 19 20 30 34 37 44 43 39
Wind_Direction
51 81 118 182 63 176 103 15 68 318 335 357 42 47 105 127 154 192 229 192 152 131 138 118 103 90 96 117 52 296 269 266
302 42 35 106 156 50 12 128 106 323 38 331 15 16 87 98 108 149 138 185 159 132 141 123 116 104 100 91 68 41 15 297
28 17 320 354 22 51 109 96 142 121 313 359 354 8 58 49 46 44 51 52 53 93 129 131 119 95 88 56 28 13 1 351
154 312 285 98 82 107 110 221 73 118 265 9 62 72 69 57 46 41 52 51 52 57 72 73 65 57 67 27 354 349 346 341
357 351 3 44 6 96 101 85 23 114 198 83 25 59 64 66 30 24 38 39 28 29 20 9 359 347 339 335 325 316 317 326
179 202 198 354 349 71 101 103 148 190 134 110 65 80 67 65 55 55 48 45 30 17 1 346 322 312 300 301 293 291 292 302
87 337 93 211 12 14 91 159 123 178 120 133 98 85 75 80 62 47 26 15 358 340 332 331 329 325 320 310 308 298 289 283
7 357 13 40 38 68 53 100 72 113 97 143 110 113 68 52 42 28 9 351 341 335 332 329 329 323 320 312 307 303 301 290
277 346 29 17 354 69 85 57 124 139 162 135 54 84 70 51 34 5 345 340 339 339 335 330 326 320 314 315 312 302 293 288
193 18 41 319 80 88 83 64 88 93 112 107 19 68 101 63 21 340 344 327 316 310 308 314 313 315 314 312 314 317 309 296
116 126 75 146 210 198 126 215 190 140 149 169 281 150 202 60 13 301 289 290 295 308 310 311 308 304 314 316 313 312 307 305
112 142 197 218 208 136 125 272 203 169 173 189 222 350 231 10 330 317 319 322 322 326 321 312 311 307 299 301 303 301 304 302
138 167 288 241 224 109 104 243 171 173 175 180 185 206 303 323 312 316 318 323 332 336 321 320 319 315 298 295 289 294 301 303
90 91 271 164 68 160 196 74 149 170 173 174 168 191 248 271 273 284 292 310 324 319 320 324 320 317 312 300 295 293 294 290
165 210 252 316 236 35 140 149 175 160 173 172 171 208 213 250 263 279 286 302 318 319 315 315 315 314 311 305 306 299 295 286
86 218 174 196 91 139 142 142 150 159 166 174 189 202 227 248 271 274 287 297 308 314 306 300 314 319 317 315 314 310 305 296
260 274 13 278 232 176 154 139 135 154 173 190 188 216 222 241 257 272 285 298 308 306 296 321 324 321 329 325 325 327 316 308
220 208 176 218 209 159 158 178 180 168 189 204 202 222 230 250 267 278 288 296 300 283 293 329 329 337 341 350 342 338 328 324
227 196 183 10 172 170 178 179 188 185 200 198 226 233 244 251 268 284 287 291 280 283 274 292 303 318 336 343 352 342 332 332